User: anonymous   Login
Location: StarHub Observatory
(35.2598°N, 77.5855°W)
Time: 07:52:16
(UTC-04:00)
Language:

Hubble Space Telescope - Orbit

View from above orbital plane
View from above orbital plane
View from above satellite
View from above satellite

Ground track
Ground track

The orbit data is extracted from the following two-line orbital elements,

1 20580U 90037B   22175.57838664  .00001655  00000-0  86878-4 0  9996
2 20580  28.4694 121.5885 0002743 111.8270  53.4704 15.10602622567293
Epoch (UTC): 24 June 2022 13:52:52
Eccentricity: 0.0002743
inclination: 28.4694°
perigee height: 532 km
apogee height: 536 km
right ascension of ascending node: 121.5885°
argument of perigee: 111.8270°
revolutions per day: 15.10602622
mean anomaly at epoch: 53.4704°
orbit number at epoch: 56729

The dashed part of the orbit path shows where the satellite is in the earth's shadow,  

DLR